FW0409 Weather Reports


Display with metric or nautical units.
time (UTC)temp
F
wind
direction
speed
MPH
gust
MPH
rain 1hr
in
rain 24hr
in
rain mn
in
humidity
%
barometer
mb
20260506004032 64 311 1.0 6.0 0.00 0.00 0.00 71 1015.2
20260506003532 64 349 3.0 6.0 0.00 0.00 0.00 71 1015.2
20260506003037 64 311 3.0 5.0 0.00 0.00 0.00 70 1015.1
20260506002531 64 323 0.0 4.0 0.00 0.00 0.00 71 1015.2
20260506002032 64 326 2.0 4.0 0.00 0.00 0.00 70 1015.3
20260506001537 64 321 2.0 6.0 0.00 0.00 0.00 70 1015.2
20260506001032 64 313 3.0 6.0 0.00 0.00 0.00 71 1015.2
20260506000531 64 302 3.0 6.0 0.00 0.00 0.00 72 1015.3
20260506000031 64 283 0.0 5.0 0.00 0.00 0.00 71 1015.3
20260505235531 63 286 1.0 5.0 0.00 0.00 0.00 70 1015.4
20260505235033 63 295 0.0 3.0 0.00 0.00 0.00 70 1015.4
20260505234535 63 296 1.0 4.0 0.00 0.00 0.00 70 1015.6
20260505234035 64 299 0.0 6.0 0.00 0.00 0.00 71 1015.5
20260505233530 63 304 2.0 6.0 0.00 0.00 0.00 71 1015.5
20260505233030 63 304 3.0 5.0 0.00 0.00 0.00 71 1015.5
20260505232530 63 302 2.0 5.0 0.00 0.00 0.00 71 1015.5
20260505232030 63 308 1.0 7.0 0.00 0.00 0.00 72 1015.6
20260505231530 63 296 3.0 7.0 0.00 0.00 0.00 72 1015.6
20260505231029 63 267 1.0 5.0 0.00 0.00 0.00 71 1015.6
20260505230528 63 271 1.0 5.0 0.00 0.00 0.00 71 1015.7
20260505230046 63 241 2.0 10.0 0.00 0.00 0.00 71 1015.6
20260505225528 63 294 5.0 10.0 0.00 0.00 0.00 70 1015.6
20260505225030 63 316 3.0 8.0 0.00 0.00 0.00 71 1015.6
20260505224529 63 291 1.0 4.0 0.00 0.00 0.00 71 1015.6
20260505224028 63 292 1.0 5.0 0.00 0.00 0.00 71 1015.7
20260505223532 63 239 2.0 5.0 0.00 0.00 0.00 71 1015.8
20260505223027 63 313 0.0 7.0 0.00 0.00 0.00 71 1015.8
20260505222530 63 306 4.0 7.0 0.00 0.00 0.00 71 1015.8
20260505222028 63 280 2.0 5.0 0.00 0.00 0.00 70 1015.7
20260505221528 64 289 2.0 7.0 0.00 0.00 0.00 70 1015.8
20260505221034 64 296 3.0 7.0 0.00 0.00 0.00 70 1015.8
20260505220526 64 301 2.0 7.0 0.00 0.00 0.00 70 1015.7
20260505220031 64 27 2.0 5.0 0.00 0.00 0.00 70 1015.8
20260505215529 64 10 2.0 8.0 0.00 0.00 0.00 70 1015.9
20260505215028 64 360 3.0 8.0 0.00 0.00 0.00 70 1015.9
20260505214527 64 324 0.0 2.0 0.00 0.00 0.00 71 1015.9
20260505214026 64 324 0.0 6.0 0.00 0.00 0.00 70 1016.0
20260505213525 64 324 2.0 6.0 0.00 0.00 0.00 70 1016.0
20260505213025 64 265 0.0 5.0 0.00 0.00 0.00 70 1015.9
20260505212529 64 248 2.0 5.0 0.00 0.00 0.00 70 1016.1
20260505212025 64 317 2.0 5.0 0.00 0.00 0.00 70 1015.9
20260505211624 64 12 1.0 5.0 0.00 0.00 0.00 71 1016.0
20260505211024 63 355 0.0 6.0 0.00 0.00 0.00 72 1016.0
20260505210523 63 355 3.0 8.0 0.00 0.00 0.00 73 1016.1
20260505210023 63 321 3.0 6.0 0.00 0.00 0.00 73 1016.2
20260505205522 63 163 0.0 5.0 0.00 0.00 0.00 71 1016.2
20260505205027 63 169 2.0 7.0 0.00 0.00 0.00 71 1016.2
20260505204524 63 166 5.0 7.0 0.00 0.00 0.00 71 1016.3
20260505204022 64 167 4.0 6.0 0.00 0.00 0.00 71 1016.3
20260505203521 63 211 1.0 5.0 0.00 0.00 0.00 75 1016.3
20260505203021 62 162 1.0 5.0 0.00 0.00 0.00 74 1016.4
20260505202521 62 157 1.0 5.0 0.00 0.00 0.00 72 1016.3
20260505202019 62 136 3.0 4.0 0.00 0.00 0.00 74 1016.5
20260505201518 62 240 0.0 3.0 0.00 0.00 0.00 73 1016.4
20260505201018 62 250 1.0 4.0 0.00 0.00 0.00 74 1016.4
20260505200517 62 293 1.0 5.0 0.00 0.00 0.00 74 1016.4
20260505200019 62 338 1.0 4.0 0.00 0.00 0.00 74 1016.5
20260505195519 62 340 1.0 4.0 0.00 0.00 0.00 73 1016.4
20260505195015 61 338 2.0 4.0 0.00 0.00 0.00 75 1016.4
20260505194513 61 326 2.0 3.0 0.00 0.00 0.00 75 1016.3
20260505194014 61 317 0.0 4.0 0.00 0.00 0.00 74 1016.5
20260505193513 61 317 2.0 4.0 0.00 0.00 0.00 75 1016.5
20260505193013 61 317 2.0 4.0 0.00 0.00 0.00 75 1016.5
20260505192516 61 336 1.0 4.0 0.00 0.00 0.00 75 1016.4
20260505192010 60 329 2.0 4.0 0.00 0.00 0.00 76 1016.5
20260505191510 60 325 0.0 4.0 0.00 0.00 0.00 76 1016.6
20260505191010 60 325 0.0 4.0 0.00 0.00 0.00 76 1016.6
20260505190508 60 184 0.0 3.0 0.00 0.00 0.00 77 1016.5
20260505190010 60 149 0.0 4.0 0.00 0.00 0.00 76 1016.6
20260505185508 60 144 1.0 5.0 0.00 0.00 0.00 76 1016.5
20260505185009 59 187 2.0 5.0 0.00 0.00 0.00 77 1016.6
20260505184508 59 169 0.0 5.0 0.00 0.00 0.00 77 1016.6
20260505184008 59 169 0.0 5.0 0.00 0.00 0.00 77 1016.6
20260505183507 59 168 0.0 5.0 0.00 0.00 0.00 77 1016.6
20260505183007 59 168 2.0 5.0 0.00 0.00 0.00 78 1016.5
20260505182509 59 171 1.0 3.0 0.00 0.00 0.00 78 1016.7
20260505182007 59 171 0.0 4.0 0.00 0.00 0.00 78 1016.6
20260505181507 59 172 2.0 5.0 0.00 0.00 0.00 77 1016.7
20260505181006 59 167 0.0 3.0 0.00 0.00 0.00 78 1016.6
20260505180507 59 166 0.0 8.0 0.00 0.00 0.00 77 1016.5
20260505180010 59 163 2.0 8.0 0.00 0.00 0.00 77 1016.4
20260505175505 59 158 3.0 5.0 0.00 0.00 0.00 78 1016.4
20260505175006 59 176 1.0 5.0 0.00 0.00 0.00 78 1016.5
20260505174506 59 171 3.0 5.0 0.00 0.00 0.00 77 1016.5
20260505174006 59 173 1.0 7.0 0.00 0.00 0.00 78 1016.4
20260505173506 59 167 4.0 7.0 0.00 0.00 0.00 77 1016.5
20260505173005 59 178 0.0 4.0 0.00 0.00 0.00 78 1016.3
20260505172510 58 180 1.0 4.0 0.00 0.00 0.00 77 1016.3
20260505172009 58 180 2.0 4.0 0.00 0.00 0.00 78 1016.3
20260505171505 58 191 1.0 4.0 0.00 0.00 0.00 77 1016.3
20260505171009 58 191 1.0 4.0 0.00 0.00 0.00 78 1016.3
20260505170504 58 204 2.0 4.0 0.00 0.00 0.00 79 1016.3
20260505170004 58 211 1.0 4.0 0.00 0.00 0.00 79 1016.4
20260505165504 58 239 1.0 4.0 0.00 0.00 0.00 80 1016.3
20260505165003 58 179 0.0 4.0 0.00 0.00 0.00 80 1016.2
20260505164504 57 178 0.0 2.0 0.00 0.00 0.00 80 1016.2
20260505164004 57 178 0.0 2.0 0.00 0.00 0.00 80 1016.1
20260505163509 57 178 0.0 0.0 0.00 0.00 0.00 81 1016.1
20260505163003 57 178 0.0 4.0 0.00 0.00 0.00 81 1016.0
20260505162502 57 178 0.0 4.0 0.00 0.00 0.00 82 1016.1
20260505162002 56 180 0.0 3.0 0.00 0.00 0.00 82 1016.0
20260505161503 56 180 0.0 3.0 0.00 0.00 0.00 82 1016.0
20260505161002 56 180 0.0 4.0 0.00 0.00 0.00 82 1016.1
20260505160501 56 180 1.0 4.0 0.00 0.00 0.00 83 1016.0
20260505160103 56 180 2.0 3.0 0.00 0.00 0.00 83 1016.0
20260505153100 55 172 3.0 6.0 0.00 0.00 0.00 84 1015.9
20260505152600 55 165 1.0 6.0 0.00 0.00 0.00 84 1015.9
20260505152103 55 155 2.0 5.0 0.00 0.00 0.00 84 1015.9
20260505151600 55 154 2.0 7.0 0.00 0.00 0.00 84 1016.0
20260505151059 55 139 3.0 7.0 0.00 0.00 0.00 84 1016.0
20260505150559 55 162 2.0 5.0 0.00 0.00 0.00 84 1016.0
20260505140553 55 151 2.0 8.0 0.00 0.00 0.00 84 1015.3
20260505124547 55 165 2.0 6.0 0.00 0.00 0.00 83 1015.0
20260505124046 55 157 3.0 6.0 0.00 0.00 0.00 83 1015.0
20260505123548 55 163 1.0 5.0 0.00 0.00 0.00 83 1015.0
20260505123046 55 160 2.0 5.0 0.00 0.00 0.00 83 1015.0
20260505122545 55 174 3.0 4.0 0.00 0.00 0.00 82 1015.1
20260505122044 55 177 1.0 4.0 0.00 0.00 0.00 82 1015.0
20260505121544 55 171 2.0 5.0 0.00 0.00 0.00 82 1015.0
20260505121044 55 182 1.0 5.0 0.00 0.00 0.00 82 1015.0
20260505120544 55 182 2.0 5.0 0.00 0.00 0.00 82 1015.0
20260505120043 55 174 2.0 7.0 0.00 0.00 0.00 82 1015.0
20260505115542 55 177 3.0 7.0 0.00 0.00 0.00 82 1014.8
20260505115042 55 139 1.0 5.0 0.00 0.00 0.00 82 1014.8
20260505114542 55 163 3.0 5.0 0.00 0.00 0.00 82 1014.8
20260505114041 55 168 3.0 5.0 0.00 0.00 0.00 82 1014.8
20260505113540 55 186 3.0 5.0 0.00 0.00 0.00 82 1014.7
20260505113048 55 157 1.0 3.0 0.00 0.00 0.00 82 1014.7
20260505112540 55 157 1.0 3.0 0.00 0.00 0.00 82 1014.8
20260505112042 55 157 0.0 5.0 0.00 0.00 0.00 82 1014.7
20260505111539 55 157 2.0 5.0 0.00 0.00 0.00 82 1014.7
20260505111039 55 156 2.0 6.0 0.00 0.00 0.00 82 1014.8
20260505110538 55 152 1.0 6.0 0.00 0.00 0.00 82 1014.6
20260505102032 56 176 1.0 5.0 0.00 0.00 0.00 81 1014.2
20260505101549 56 173 1.0 5.0 0.00 0.00 0.00 81 1014.3
20260505101034 56 170 2.0 4.0 0.00 0.00 0.00 81 1014.4
20260505100530 56 171 2.0 4.0 0.00 0.00 0.00 81 1014.4
20260505100053 56 171 0.0 3.0 0.00 0.00 0.00 81 1014.4
20260505095531 56 171 2.0 4.0 0.00 0.00 0.00 81 1014.3
20260505095028 56 171 1.0 4.0 0.00 0.00 0.00 81 1014.2
20260505094531 56 171 2.0 7.0 0.00 0.00 0.00 80 1014.1
20260505094028 56 169 2.0 7.0 0.00 0.00 0.00 80 1014.2
20260505093527 56 173 2.0 6.0 0.00 0.00 0.00 80 1014.2
20260505093026 56 162 2.0 6.0 0.00 0.00 0.00 80 1014.2
20260505092526 57 167 4.0 7.0 0.00 0.00 0.00 80 1014.1
20260505092024 57 171 1.0 4.0 0.00 0.00 0.00 79 1014.1
20260505091524 57 171 1.0 4.0 0.00 0.00 0.00 79 1014.0
20260505091023 57 169 0.0 4.0 0.00 0.00 0.00 79 1013.9
20260505090522 57 169 1.0 6.0 0.00 0.00 0.00 78 1013.8
20260505090021 57 159 3.0 5.0 0.00 0.00 0.00 79 1014.0
20260505085523 57 166 3.0 6.0 0.00 0.00 0.00 78 1013.8
20260505085020 57 145 2.0 4.0 0.00 0.00 0.00 78 1013.7
20260505084520 58 168 1.0 6.0 0.00 0.00 0.00 78 1013.7
20260505084020 58 167 3.0 6.0 0.00 0.00 0.00 78 1013.8
20260505083521 58 171 0.0 4.0 0.00 0.00 0.00 78 1013.7
20260505083023 58 171 1.0 5.0 0.00 0.00 0.00 77 1013.7
20260505082518 58 171 1.0 7.0 0.00 0.00 0.00 78 1013.6
20260505082018 58 170 2.0 4.0 0.00 0.00 0.00 78 1013.6
20260505081517 58 168 0.0 3.0 0.00 0.00 0.00 78 1013.6
20260505081017 58 168 1.0 6.0 0.00 0.00 0.00 78 1013.5
20260505080517 58 168 2.0 6.0 0.00 0.00 0.00 78 1013.6
20260505080019 58 165 1.0 6.0 0.00 0.00 0.00 78 1013.5
20260505075515 58 165 3.0 6.0 0.00 0.00 0.00 78 1013.5
20260505075015 58 182 2.0 4.0 0.00 0.00 0.00 78 1013.5
20260505074515 58 182 1.0 4.0 0.00 0.00 0.00 78 1013.4
20260505074014 58 184 0.0 4.0 0.00 0.00 0.00 77 1013.4
20260505073513 58 184 2.0 4.0 0.00 0.00 0.00 77 1013.3
20260505073030 58 186 1.0 4.0 0.00 0.00 0.00 77 1013.1
20260505072511 59 198 0.0 2.0 0.00 0.00 0.00 77 1013.1
20260505072010 59 198 0.0 2.0 0.00 0.00 0.00 76 1012.9
20260505071509 59 198 0.0 2.0 0.00 0.00 0.00 76 1012.9
20260505071010 60 198 0.0 5.0 0.00 0.00 0.00 76 1013.0
20260505070512 60 198 1.0 6.0 0.00 0.00 0.00 75 1012.9
20260505070012 60 165 3.0 7.0 0.00 0.00 0.00 75 1012.7
20260505065507 60 161 2.0 6.0 0.00 0.00 0.00 75 1012.7
20260505065006 61 165 3.0 6.0 0.00 0.00 0.00 75 1012.7
20260505064509 61 169 2.0 6.0 0.00 0.00 0.00 74 1012.6
20260505064006 62 135 2.0 6.0 0.00 0.00 0.00 73 1012.4
20260505063506 62 177 1.0 5.0 0.00 0.00 0.00 74 1012.4
20260505063006 62 179 1.0 5.0 0.00 0.00 0.00 73 1012.3
20260505062506 62 218 0.0 3.0 0.00 0.00 0.00 72 1012.2
20260505062010 63 218 0.0 5.0 0.00 0.00 0.00 72 1012.2
20260505061518 63 229 2.0 5.0 0.00 0.00 0.00 72 1012.1
20260505061005 63 262 0.0 3.0 0.00 0.00 0.00 72 1012.1
20260505060506 64 263 0.0 3.0 0.00 0.00 0.00 71 1012.0
20260505060005 64 263 0.0 3.0 0.00 0.00 0.00 71 1011.9
20260505055504 64 263 0.0 2.0 0.00 0.00 0.00 71 1011.9
20260505055007 64 264 0.0 4.0 0.00 0.00 0.00 70 1011.8
20260505054505 65 264 1.0 4.0 0.00 0.00 0.00 70 1011.7
20260505054005 65 254 0.0 5.0 0.00 0.00 0.00 70 1011.8
20260505053506 65 256 2.0 5.0 0.00 0.00 0.00 69 1011.9
20260505053007 65 248 2.0 7.0 0.00 0.00 0.00 69 1011.9
20260505052504 66 245 1.0 7.0 0.00 0.00 0.00 69 1011.8
20260505052009 66 274 1.0 4.0 0.00 0.00 0.00 69 1011.7
20260505051513 66 173 1.0 6.0 0.00 0.00 0.00 72 1011.8
20260505051006 66 171 4.0 6.0 0.00 0.00 0.00 73 1011.7
20260505050503 66 177 1.0 5.0 0.00 0.00 0.00 74 1011.6
20260505041505 66 162 0.0 1.0 0.00 0.00 0.00 75 1011.1
20260505041002 66 162 0.0 3.0 0.00 0.00 0.00 75 1011.0
20260505040501 66 162 1.0 3.0 0.00 0.00 0.00 75 1010.8
20260505040001 66 162 1.0 3.0 0.00 0.00 0.00 74 1010.7
20260505035500 67 162 1.0 3.0 0.00 0.00 0.00 74 1010.5
20260505035001 67 162 1.0 5.0 0.00 0.00 0.00 74 1010.5
20260505034500 67 162 1.0 5.0 0.00 0.00 0.00 73 1010.6
20260505034100 67 163 2.0 5.0 0.00 0.00 0.00 73 1010.4
20260505033601 68 165 1.0 3.0 0.00 0.00 0.00 72 1010.5
20260505033104 68 165 1.0 3.0 0.00 0.00 0.00 71 1010.4
20260505032601 68 165 1.0 3.0 0.00 0.00 0.00 71 1010.3
20260505032059 68 166 2.0 5.0 0.00 0.00 0.00 70 1010.1
20260505031600 69 169 2.0 5.0 0.00 0.00 0.00 70 1010.2
20260505031100 69 173 3.0 6.0 0.00 0.00 0.00 70 1010.2
20260505030558 69 163 3.0 9.0 0.00 0.00 0.00 69 1010.2
20260505030058 69 167 5.0 9.0 0.00 0.00 0.00 68 1010.0
20260505025558 70 171 4.0 8.0 0.00 0.00 0.00 68 1010.1
20260505025057 70 157 3.0 7.0 0.00 0.00 0.00 68 1010.0
20260505024558 70 169 3.0 6.0 0.00 0.00 0.00 68 1009.9
20260505024057 70 166 3.0 5.0 0.00 0.00 0.00 67 1009.8
20260505023557 71 172 3.0 5.0 0.00 0.00 0.00 67 1009.7
20260505023103 71 159 2.0 8.0 0.00 0.00 0.00 66 1009.8
20260505022557 71 162 4.0 8.0 0.00 0.00 0.00 66 1009.8
20260505022057 71 159 3.0 7.0 0.00 0.00 0.00 65 1009.7
20260505021557 71 172 2.0 8.0 0.00 0.00 0.00 66 1009.7
20260505021056 72 169 4.0 7.0 0.00 0.00 0.00 65 1009.6
20260505020555 72 173 3.0 7.0 0.00 0.00 0.00 64 1009.7
20260505020057 72 180 2.0 5.0 0.00 0.00 0.00 64 1009.7
20260505015555 72 167 3.0 9.0 0.00 0.00 0.00 64 1009.7
20260505015055 72 167 4.0 9.0 0.00 0.00 0.00 63 1009.7
20260505014600 72 175 3.0 8.0 0.00 0.00 0.00 63 1009.9
20260505014055 72 172 3.0 8.0 0.00 0.00 0.00 63 1009.8
20260505013554 72 178 2.0 8.0 0.00 0.00 0.00 63 1009.9
20260505013057 72 172 2.0 8.0 0.00 0.00 0.00 63 1010.0
20260505012555 72 170 2.0 10.0 0.00 0.00 0.00 63 1010.0
20260505012054 72 170 3.0 6.0 0.00 0.00 0.00 62 1010.0
20260505011554 73 165 0.0 5.0 0.00 0.00 0.00 62 1010.1
20260505011053 73 162 2.0 8.0 0.00 0.00 0.00 61 1010.2
20260505010554 73 183 3.0 8.0 0.00 0.00 0.00 61 1010.2
20260505010112 72 172 5.0 9.0 0.00 0.00 0.00 62 1010.1
20260505005553 72 178 3.0 10.0 0.00 0.00 0.00 62 1010.1
20260505005053 73 192 1.0 9.0 0.00 0.00 0.00 60 1010.2
20260505004553 73 180 4.0 9.0 0.00 0.00 0.00 61 1010.2